Time,TemperatureF,DewpointF,PressureIn,WindDirection,WindDirectionDegrees,WindSpeedMPH,WindSpeedGustMPH,Humidity,HourlyPrecipIn,Conditions,Clouds,dailyrainin,SoftwareType,DateUTC
2013-07-02 00:00:00,70.1,68.0,30.02,West,261,0.0,0.0,93,0.00,,---,0.00,VWS V14.01,2013-07-02 04:00:00,
2013-07-02 00:05:00,70.1,68.0,30.02,West,260,0.0,0.0,93,0.00,,---,0.00,VWS V14.01,2013-07-02 04:05:00,
2013-07-02 00:10:00,70.1,68.0,30.02,West,261,0.0,0.0,93,0.00,,---,0.00,VWS V14.01,2013-07-02 04:10:00,
2013-07-02 00:15:00,70.1,68.0,30.02,West,261,0.0,0.0,93,0.00,,---,0.00,VWS V14.01,2013-07-02 04:15:00,
2013-07-02 00:20:00,70.0,67.9,30.02,West,261,0.0,0.0,93,0.00,,---,0.00,VWS V14.01,2013-07-02 04:20:00,
2013-07-02 00:25:00,70.0,67.9,30.02,West,261,0.0,0.0,93,0.00,,---,0.00,VWS V14.01,2013-07-02 04:25:00,
2013-07-02 00:30:00,69.9,67.8,30.02,West,261,0.0,0.0,93,0.00,,---,0.00,VWS V14.01,2013-07-02 04:30:00,
2013-07-02 00:35:00,69.9,67.5,30.02,West,261,0.0,0.0,92,0.00,,---,0.00,VWS V14.01,2013-07-02 04:35:00,
2013-07-02 00:40:00,69.9,67.5,30.02,West,261,0.0,0.0,92,0.00,,---,0.00,VWS V14.01,2013-07-02 04:40:00,
2013-07-02 00:50:00,69.9,67.5,30.02,West,261,0.0,0.0,92,0.00,,---,0.00,VWS V14.01,2013-07-02 04:50:00,
2013-07-02 00:55:00,70.0,67.6,30.02,West,260,0.0,0.0,92,0.00,,---,0.00,VWS V14.01,2013-07-02 04:55:00,
2013-07-02 01:00:00,70.0,67.6,30.02,West,261,0.0,0.0,92,0.00,,---,0.00,VWS V14.01,2013-07-02 05:00:00,
2013-07-02 01:10:00,69.9,67.5,30.02,West,261,0.0,0.0,92,0.00,,---,0.00,VWS V14.01,2013-07-02 05:10:00,
2013-07-02 01:15:00,69.8,67.4,30.01,West,260,0.0,0.0,92,0.00,,---,0.00,VWS V14.01,2013-07-02 05:15:00,
2013-07-02 01:20:00,70.1,67.7,30.01,SE,138,0.0,2.0,92,0.00,,---,0.00,VWS V14.01,2013-07-02 05:20:00,
2013-07-02 01:25:00,70.2,67.8,30.02,SE,138,0.0,1.0,92,0.00,,---,0.00,VWS V14.01,2013-07-02 05:25:00,
2013-07-02 01:30:00,70.2,67.8,30.02,SE,138,0.0,0.0,92,0.00,,---,0.00,VWS V14.01,2013-07-02 05:30:00,
2013-07-02 01:35:00,70.3,67.9,30.01,SE,137,0.0,1.0,92,0.00,,---,0.00,VWS V14.01,2013-07-02 05:35:00,
2013-07-02 01:45:00,70.3,67.9,30.02,SE,138,0.0,0.0,92,0.00,,---,0.00,VWS V14.01,2013-07-02 05:45:00,
2013-07-02 01:50:00,70.3,67.9,30.01,SE,137,0.0,0.0,92,0.00,,---,0.00,VWS V14.01,2013-07-02 05:50:00,
2013-07-02 02:00:00,70.3,67.9,30.02,SE,137,0.0,0.0,92,0.00,,---,0.00,VWS V14.01,2013-07-02 06:00:00,
2013-07-02 02:05:00,70.3,67.9,30.02,SE,138,0.0,0.0,92,0.00,,---,0.00,VWS V14.01,2013-07-02 06:05:00,
2013-07-02 02:10:00,70.5,68.1,30.02,SE,137,0.0,1.0,92,0.00,,---,0.00,VWS V14.01,2013-07-02 06:10:00,
2013-07-02 02:15:00,70.5,68.1,30.02,SE,137,0.0,0.0,92,0.00,,---,0.00,VWS V14.01,2013-07-02 06:15:00,
2013-07-02 02:20:00,70.6,68.2,30.02,SE,141,0.0,2.0,92,0.00,,---,0.00,VWS V14.01,2013-07-02 06:20:00,
2013-07-02 02:25:00,70.6,68.2,30.02,SE,141,0.0,0.0,92,0.00,,---,0.00,VWS V14.01,2013-07-02 06:25:00,
2013-07-02 02:30:00,70.6,68.2,30.02,SE,141,0.0,0.0,92,0.00,,---,0.00,VWS V14.01,2013-07-02 06:30:00,
2013-07-02 02:40:00,70.7,68.3,30.02,SE,141,0.0,1.0,92,0.00,,---,0.00,VWS V14.01,2013-07-02 06:40:00,
2013-07-02 02:45:00,70.7,68.3,30.02,SE,142,0.0,1.0,92,0.00,,---,0.00,VWS V14.01,2013-07-02 06:45:00,
2013-07-02 02:55:00,70.8,68.4,30.02,SE,142,0.0,0.0,92,0.00,,---,0.00,VWS V14.01,2013-07-02 06:55:00,
2013-07-02 03:05:00,70.6,68.2,30.02,SE,141,0.0,0.0,92,0.01,,---,0.01,VWS V14.01,2013-07-02 07:05:00,
2013-07-02 03:10:00,70.6,68.2,30.02,SE,142,0.0,2.0,92,0.01,,---,0.01,VWS V14.01,2013-07-02 07:10:00,
2013-07-02 03:20:00,70.9,68.5,30.02,SSE,150,0.0,1.0,92,0.01,,---,0.01,VWS V14.01,2013-07-02 07:20:00,
2013-07-02 03:25:00,71.0,68.6,30.02,SSE,150,0.0,1.0,92,0.01,,---,0.01,VWS V14.01,2013-07-02 07:25:00,
2013-07-02 03:30:00,71.1,68.7,30.02,SSE,151,0.0,1.0,92,0.01,,---,0.01,VWS V14.01,2013-07-02 07:30:00,
2013-07-02 03:40:00,71.2,68.8,30.02,SSE,153,0.0,0.0,92,0.01,,---,0.01,VWS V14.01,2013-07-02 07:40:00,
2013-07-02 03:45:00,71.2,68.8,30.02,SSE,153,0.0,1.0,92,0.01,,---,0.01,VWS V14.01,2013-07-02 07:45:00,
2013-07-02 03:50:00,71.2,68.8,30.03,SSE,155,0.0,2.0,92,0.01,,---,0.01,VWS V14.01,2013-07-02 07:50:00,
2013-07-02 04:00:00,71.2,69.1,30.02,SSE,164,1.0,4.0,93,0.01,,---,0.01,VWS V14.01,2013-07-02 08:00:00,
2013-07-02 04:05:00,71.2,69.1,30.02,SSE,165,0.0,2.0,93,0.01,,---,0.01,VWS V14.01,2013-07-02 08:05:00,
2013-07-02 04:10:00,71.2,69.1,30.02,SSE,165,0.0,1.0,93,0.00,,---,0.01,VWS V14.01,2013-07-02 08:10:00,
2013-07-02 04:20:00,71.2,69.1,30.03,SSE,165,0.0,0.0,93,0.00,,---,0.01,VWS V14.01,2013-07-02 08:20:00,
2013-07-02 04:30:00,71.1,69.0,30.03,SSE,165,0.0,0.0,93,0.00,,---,0.01,VWS V14.01,2013-07-02 08:30:00,
2013-07-02 04:35:00,71.1,69.0,30.03,SSE,165,0.0,0.0,93,0.00,,---,0.01,VWS V14.01,2013-07-02 08:35:00,
2013-07-02 04:45:00,70.9,68.8,30.03,SSE,165,0.0,0.0,93,0.00,,---,0.01,VWS V14.01,2013-07-02 08:45:00,
2013-07-02 04:55:00,70.8,68.7,30.04,SSE,165,0.0,0.0,93,0.00,,---,0.01,VWS V14.01,2013-07-02 08:55:00,
2013-07-02 05:00:00,70.7,68.6,30.04,SSE,165,0.0,0.0,93,0.00,,---,0.01,VWS V14.01,2013-07-02 09:00:00,
2013-07-02 05:10:00,70.6,68.5,30.04,SSE,165,0.0,2.0,93,0.00,,---,0.01,VWS V14.01,2013-07-02 09:10:00,
2013-07-02 05:15:00,70.7,68.6,30.04,SSE,165,0.0,1.0,93,0.00,,---,0.01,VWS V14.01,2013-07-02 09:15:00,
2013-07-02 05:20:00,70.7,68.6,30.05,SSE,165,0.0,0.0,93,0.00,,---,0.01,VWS V14.01,2013-07-02 09:20:00,
2013-07-02 05:25:00,70.7,68.6,30.05,SSE,165,0.0,0.0,93,0.00,,---,0.01,VWS V14.01,2013-07-02 09:25:00,
2013-07-02 05:30:00,70.6,68.5,30.05,SSE,165,0.0,0.0,93,0.00,,---,0.01,VWS V14.01,2013-07-02 09:30:00,
2013-07-02 05:40:00,70.6,68.5,30.06,SSE,165,0.0,0.0,93,0.00,,---,0.01,VWS V14.01,2013-07-02 09:40:00,
2013-07-02 05:50:00,70.6,68.5,30.06,SSE,167,0.0,0.0,93,0.00,,---,0.01,VWS V14.01,2013-07-02 09:50:00,
2013-07-02 05:55:00,70.6,68.5,30.06,SSE,165,0.0,0.0,93,0.00,,---,0.01,VWS V14.01,2013-07-02 09:55:00,
2013-07-02 06:05:00,70.8,68.7,30.06,SSE,166,0.0,0.0,93,0.00,,---,0.01,VWS V14.01,2013-07-02 10:05:00,
2013-07-02 06:10:00,70.9,68.8,30.07,SSE,166,0.0,0.0,93,0.00,,---,0.01,VWS V14.01,2013-07-02 10:10:00,
2013-07-02 06:20:00,71.0,68.9,30.07,SSE,166,0.0,1.0,93,0.00,,---,0.01,VWS V14.01,2013-07-02 10:20:00,
2013-07-02 06:25:00,71.1,69.0,30.06,SSE,166,0.0,0.0,93,0.00,,---,0.01,VWS V14.01,2013-07-02 10:25:00,
2013-07-02 06:30:00,71.1,69.0,30.06,SSE,166,0.0,0.0,93,0.00,,---,0.01,VWS V14.01,2013-07-02 10:30:00,
2013-07-02 06:35:00,71.2,69.1,30.06,SSE,165,0.0,1.0,93,0.00,,---,0.01,VWS V14.01,2013-07-02 10:35:00,
2013-07-02 06:45:00,71.4,69.3,30.06,SSE,166,0.0,0.0,93,0.00,,---,0.01,VWS V14.01,2013-07-02 10:45:00,
2013-07-02 06:50:00,71.6,69.5,30.06,SSE,165,0.0,0.0,93,0.00,,---,0.01,VWS V14.01,2013-07-02 10:50:00,
2013-07-02 07:00:00,72.2,70.1,30.06,SSE,166,0.0,0.0,93,0.00,,---,0.01,VWS V14.01,2013-07-02 11:00:00,
2013-07-02 07:05:00,72.5,70.4,30.06,SSE,166,0.0,0.0,93,0.00,,---,0.01,VWS V14.01,2013-07-02 11:05:00,
2013-07-02 07:10:00,72.7,70.6,30.07,SSE,166,0.0,0.0,93,0.00,,---,0.01,VWS V14.01,2013-07-02 11:10:00,
2013-07-02 07:15:00,72.7,70.6,30.07,SSE,166,0.0,1.0,93,0.00,,---,0.01,VWS V14.01,2013-07-02 11:15:00,
2013-07-02 07:20:00,73.0,70.9,30.07,SSE,166,0.0,0.0,93,0.00,,---,0.01,VWS V14.01,2013-07-02 11:20:00,
2013-07-02 07:30:00,73.3,70.8,30.08,SSE,166,0.0,0.0,92,0.00,,---,0.01,VWS V14.01,2013-07-02 11:30:00,
2013-07-02 07:40:00,73.4,70.6,30.08,SSE,166,0.0,1.0,91,0.00,,---,0.01,VWS V14.01,2013-07-02 11:40:00,
2013-07-02 07:45:00,73.5,70.7,30.08,SSE,166,0.0,0.0,91,0.00,,---,0.01,VWS V14.01,2013-07-02 11:45:00,
2013-07-02 07:50:00,73.5,70.7,30.08,SSE,167,0.0,1.0,91,0.00,,---,0.01,VWS V14.01,2013-07-02 11:50:00,
2013-07-02 08:00:00,73.5,70.7,30.08,SSE,167,0.0,0.0,91,0.00,,---,0.01,VWS V14.01,2013-07-02 12:00:00,
2013-07-02 08:05:00,73.7,70.9,30.09,SSE,165,0.0,1.0,91,0.00,,---,0.01,VWS V14.01,2013-07-02 12:05:00,
2013-07-02 08:10:00,73.6,70.5,30.09,SSE,167,0.0,3.0,90,0.00,,---,0.01,VWS V14.01,2013-07-02 12:10:00,
2013-07-02 08:15:00,73.6,70.5,30.09,SSE,167,0.0,0.0,90,0.00,,---,0.01,VWS V14.01,2013-07-02 12:15:00,
2013-07-02 08:20:00,73.6,70.5,30.09,SSE,167,0.0,3.0,90,0.00,,---,0.01,VWS V14.01,2013-07-02 12:20:00,
2013-07-02 08:25:00,73.7,70.6,30.09,SSE,168,0.0,0.0,90,0.00,,---,0.01,VWS V14.01,2013-07-02 12:25:00,
2013-07-02 08:35:00,74.0,70.6,30.09,SSE,168,0.0,1.0,89,0.00,,---,0.01,VWS V14.01,2013-07-02 12:35:00,
2013-07-02 08:40:00,74.3,70.8,30.09,SSE,168,0.0,1.0,89,0.00,,---,0.01,VWS V14.01,2013-07-02 12:40:00,
2013-07-02 08:45:00,74.5,70.7,30.09,South,174,0.0,4.0,88,0.00,,---,0.01,VWS V14.01,2013-07-02 12:45:00,
2013-07-02 08:50:00,74.2,70.1,30.09,SE,125,0.0,3.0,87,0.00,,---,0.01,VWS V14.01,2013-07-02 12:50:00,
2013-07-02 08:55:00,73.4,69.0,30.09,SE,136,0.0,2.0,86,0.00,,---,0.01,VWS V14.01,2013-07-02 12:55:00,
2013-07-02 09:00:00,72.9,68.5,30.09,ENE,76,1.0,3.0,86,0.00,,---,0.01,VWS V14.01,2013-07-02 13:00:00,
2013-07-02 09:10:00,71.7,66.9,30.09,East,89,2.0,3.0,85,0.00,,---,0.01,VWS V14.01,2013-07-02 13:10:00,
2013-07-02 09:15:00,70.8,66.1,30.10,East,101,1.0,4.0,85,0.00,,---,0.01,VWS V14.01,2013-07-02 13:15:00,
2013-07-02 09:20:00,69.9,65.5,30.10,East,92,1.0,4.0,86,0.00,,---,0.01,VWS V14.01,2013-07-02 13:20:00,
2013-07-02 09:25:00,69.2,64.8,30.09,ESE,121,0.0,6.0,86,0.00,,---,0.01,VWS V14.01,2013-07-02 13:25:00,
2013-07-02 09:30:00,68.4,64.1,30.09,ENE,61,1.0,7.0,86,0.00,,---,0.01,VWS V14.01,2013-07-02 13:30:00,
2013-07-02 09:40:00,67.4,63.1,30.10,East,95,2.0,9.0,86,0.00,,---,0.01,VWS V14.01,2013-07-02 13:40:00,
2013-07-02 09:45:00,66.8,62.8,30.10,ESE,121,1.0,11.0,87,0.00,,---,0.01,VWS V14.01,2013-07-02 13:45:00,
2013-07-02 09:55:00,65.7,62.0,30.10,East,79,0.0,11.0,88,0.00,,---,0.01,VWS V14.01,2013-07-02 13:55:00,
2013-07-02 10:00:00,65.2,61.9,30.10,NE,36,1.0,9.0,89,0.00,,---,0.01,VWS V14.01,2013-07-02 14:00:00,
2013-07-02 10:05:00,64.7,61.4,30.10,ENE,74,3.0,12.0,89,0.00,,---,0.01,VWS V14.01,2013-07-02 14:05:00,
2013-07-02 10:15:00,64.0,61.0,30.11,ENE,69,2.0,7.0,90,0.00,,---,0.01,VWS V14.01,2013-07-02 14:15:00,
2013-07-02 10:20:00,63.8,61.1,30.12,NE,55,0.0,4.0,91,0.00,,---,0.01,VWS V14.01,2013-07-02 14:20:00,
2013-07-02 10:25:00,63.6,60.9,30.12,East,80,2.0,6.0,91,0.00,,---,0.01,VWS V14.01,2013-07-02 14:25:00,
2013-07-02 10:35:00,63.3,60.6,30.12,East,84,4.0,6.0,91,0.00,,---,0.01,VWS V14.01,2013-07-02 14:35:00,
2013-07-02 10:40:00,63.3,60.6,30.12,East,98,2.0,4.0,91,0.00,,---,0.01,VWS V14.01,2013-07-02 14:40:00,
2013-07-02 10:45:00,63.3,60.6,30.12,South,170,3.0,4.0,91,0.00,,---,0.01,VWS V14.01,2013-07-02 14:45:00,
2013-07-02 10:50:00,63.1,60.4,30.13,South,169,2.0,7.0,91,0.00,,---,0.01,VWS V14.01,2013-07-02 14:50:00,
2013-07-02 10:55:00,63.0,60.3,30.13,NNE,13,1.0,6.0,91,0.00,,---,0.01,VWS V14.01,2013-07-02 14:55:00,
2013-07-02 11:05:00,62.9,60.2,30.13,North,5,1.0,7.0,91,0.00,,---,0.01,VWS V14.01,2013-07-02 15:05:00,
2013-07-02 11:10:00,62.9,60.2,30.13,ENE,74,0.0,5.0,91,0.00,,---,0.01,VWS V14.01,2013-07-02 15:10:00,
2013-07-02 11:15:00,62.9,60.2,30.13,South,171,3.0,10.0,91,0.00,,---,0.01,VWS V14.01,2013-07-02 15:15:00,
2013-07-02 11:20:00,62.9,60.2,30.13,SSW,203,4.0,4.0,91,0.00,,---,0.01,VWS V14.01,2013-07-02 15:20:00,
2013-07-02 11:30:00,63.0,60.3,30.13,WSW,253,0.0,6.0,91,0.00,,---,0.01,VWS V14.01,2013-07-02 15:30:00,
2013-07-02 11:35:00,63.1,60.4,30.13,NW,311,2.0,3.0,91,0.00,,---,0.01,VWS V14.01,2013-07-02 15:35:00,
2013-07-02 11:40:00,63.0,60.3,30.14,West,265,6.0,7.0,91,0.00,,---,0.01,VWS V14.01,2013-07-02 15:40:00,
2013-07-02 11:45:00,62.8,60.1,30.14,West,267,3.0,7.0,91,0.00,,---,0.01,VWS V14.01,2013-07-02 15:45:00,
2013-07-02 11:50:00,62.8,60.1,30.14,SSW,198,2.0,5.0,91,0.00,,---,0.01,VWS V14.01,2013-07-02 15:50:00,
2013-07-02 12:00:00,62.8,60.5,30.14,West,281,0.0,4.0,92,0.00,,---,0.01,VWS V14.01,2013-07-02 16:00:00,
2013-07-02 12:05:00,62.8,60.5,30.14,WSW,256,0.0,4.0,92,0.00,,---,0.01,VWS V14.01,2013-07-02 16:05:00,
2013-07-02 12:10:00,62.8,60.5,30.14,South,189,1.0,1.0,92,0.00,,---,0.01,VWS V14.01,2013-07-02 16:10:00,
2013-07-02 12:15:00,62.9,60.5,30.14,South,189,0.0,1.0,92,0.00,,---,0.01,VWS V14.01,2013-07-02 16:15:00,
2013-07-02 12:20:00,63.1,60.7,30.14,South,188,0.0,0.0,92,0.00,,---,0.01,VWS V14.01,2013-07-02 16:20:00,
2013-07-02 12:25:00,63.2,60.8,30.15,WSW,254,3.0,3.0,92,0.00,,---,0.01,VWS V14.01,2013-07-02 16:25:00,
2013-07-02 12:30:00,62.9,60.5,30.15,WSW,254,0.0,3.0,92,0.00,,---,0.01,VWS V14.01,2013-07-02 16:30:00,
2013-07-02 12:40:00,63.2,60.8,30.15,WSW,253,0.0,0.0,92,0.00,,---,0.01,VWS V14.01,2013-07-02 16:40:00,
2013-07-02 12:45:00,63.2,60.8,30.15,WSW,249,0.0,0.0,92,0.00,,---,0.01,VWS V14.01,2013-07-02 16:45:00,
2013-07-02 12:50:00,63.3,60.9,30.15,SSE,155,0.0,2.0,92,0.00,,---,0.01,VWS V14.01,2013-07-02 16:50:00,
2013-07-02 13:00:00,63.4,60.7,30.15,SE,138,2.0,3.0,91,0.00,,---,0.01,VWS V14.01,2013-07-02 17:00:00,
2013-07-02 13:05:00,63.4,60.7,30.15,South,169,0.0,5.0,91,0.00,,---,0.01,VWS V14.01,2013-07-02 17:05:00,
2013-07-02 13:10:00,63.5,60.8,30.15,South,169,0.0,1.0,91,0.00,,---,0.01,VWS V14.01,2013-07-02 17:10:00,
2013-07-02 13:20:00,63.5,60.8,30.15,South,170,0.0,0.0,91,0.00,,---,0.01,VWS V14.01,2013-07-02 17:20:00,
2013-07-02 13:25:00,63.6,61.2,30.15,ESE,110,1.0,1.0,92,0.00,,---,0.01,VWS V14.01,2013-07-02 17:25:00,
2013-07-02 13:30:00,63.8,61.4,30.15,South,178,0.0,2.0,92,0.00,,---,0.01,VWS V14.01,2013-07-02 17:30:00,
2013-07-02 13:35:00,64.2,61.8,30.15,South,178,0.0,1.0,92,0.00,,---,0.01,VWS V14.01,2013-07-02 17:35:00,
2013-07-02 13:45:00,64.7,62.3,30.14,South,178,0.0,1.0,92,0.00,,---,0.01,VWS V14.01,2013-07-02 17:45:00,
2013-07-02 13:50:00,64.7,62.3,30.15,South,178,0.0,0.0,92,0.00,,---,0.01,VWS V14.01,2013-07-02 17:50:00,
2013-07-02 13:55:00,64.7,62.3,30.15,South,169,0.0,1.0,92,0.00,,---,0.01,VWS V14.01,2013-07-02 17:55:00,
2013-07-02 14:00:00,64.4,61.7,30.14,ENE,74,1.0,3.0,91,0.00,,---,0.01,VWS V14.01,2013-07-02 18:00:00,
2013-07-02 14:10:00,64.1,61.7,30.14,ESE,119,0.0,0.0,92,0.00,,---,0.01,VWS V14.01,2013-07-02 18:10:00,
2013-07-02 14:15:00,64.2,61.8,30.14,SE,142,0.0,2.0,92,0.00,,---,0.01,VWS V14.01,2013-07-02 18:15:00,
2013-07-02 14:25:00,64.5,62.1,30.15,SE,128,0.0,1.0,92,0.00,,---,0.01,VWS V14.01,2013-07-02 18:25:00,
2013-07-02 14:35:00,65.2,62.8,30.14,SE,128,0.0,1.0,92,0.00,,---,0.01,VWS V14.01,2013-07-02 18:35:00,
2013-07-02 14:40:00,65.1,62.7,30.14,SSE,150,1.0,3.0,92,0.00,,---,0.01,VWS V14.01,2013-07-02 18:40:00,
2013-07-02 14:45:00,65.1,62.7,30.14,SSE,150,0.0,1.0,92,0.00,,---,0.01,VWS V14.01,2013-07-02 18:45:00,
2013-07-02 14:55:00,65.5,63.1,30.13,SSE,150,0.0,0.0,92,0.00,,---,0.01,VWS V14.01,2013-07-02 18:55:00,
2013-07-02 15:00:00,65.7,63.0,30.13,SSE,150,0.0,1.0,91,0.00,,---,0.01,VWS V14.01,2013-07-02 19:00:00,
2013-07-02 15:05:00,65.8,63.1,30.13,SSE,150,0.0,1.0,91,0.00,,---,0.01,VWS V14.01,2013-07-02 19:05:00,
2013-07-02 15:10:00,65.8,63.1,30.14,SSE,150,0.0,2.0,91,0.00,,---,0.01,VWS V14.01,2013-07-02 19:10:00,
2013-07-02 15:15:00,65.6,62.6,30.14,East,95,0.0,2.0,90,0.00,,---,0.01,VWS V14.01,2013-07-02 19:15:00,
2013-07-02 15:25:00,65.4,62.4,30.14,East,90,2.0,2.0,90,0.00,,---,0.01,VWS V14.01,2013-07-02 19:25:00,
2013-07-02 15:30:00,65.1,62.1,30.14,East,92,1.0,3.0,90,0.00,,---,0.01,VWS V14.01,2013-07-02 19:30:00,
2013-07-02 15:35:00,65.0,62.0,30.14,East,92,0.0,2.0,90,0.00,,---,0.01,VWS V14.01,2013-07-02 19:35:00,
2013-07-02 15:45:00,64.8,61.8,30.14,SE,136,0.0,2.0,90,0.00,,---,0.01,VWS V14.01,2013-07-02 19:45:00,
2013-07-02 15:50:00,64.6,61.6,30.14,SE,136,0.0,1.0,90,0.00,,---,0.01,VWS V14.01,2013-07-02 19:50:00,
2013-07-02 15:55:00,64.5,61.8,30.14,SE,136,0.0,1.0,91,0.00,,---,0.01,VWS V14.01,2013-07-02 19:55:00,
2013-07-02 16:00:00,64.4,61.7,30.14,SE,136,0.0,0.0,91,0.00,,---,0.01,VWS V14.01,2013-07-02 20:00:00,
2013-07-02 16:05:00,64.3,61.6,30.14,SE,136,0.0,0.0,91,0.00,,---,0.01,VWS V14.01,2013-07-02 20:05:00,
2013-07-02 16:10:00,64.2,61.5,30.13,SE,139,1.0,2.0,91,0.00,,---,0.01,VWS V14.01,2013-07-02 20:10:00,
2013-07-02 16:20:00,64.0,61.3,30.14,SE,139,0.0,1.0,91,0.00,,---,0.01,VWS V14.01,2013-07-02 20:20:00,
2013-07-02 16:25:00,63.7,61.0,30.14,SE,140,0.0,1.0,91,0.00,,---,0.01,VWS V14.01,2013-07-02 20:25:00,
2013-07-02 16:35:00,63.6,60.9,30.14,SE,140,0.0,1.0,91,0.00,,---,0.01,VWS V14.01,2013-07-02 20:35:00,
2013-07-02 16:40:00,63.4,60.7,30.14,SE,139,0.0,2.0,91,0.00,,---,0.01,VWS V14.01,2013-07-02 20:40:00,
2013-07-02 16:45:00,63.3,60.9,30.14,SE,138,0.0,0.0,92,0.00,,---,0.01,VWS V14.01,2013-07-02 20:45:00,
2013-07-02 16:50:00,63.2,60.8,30.14,SE,139,0.0,1.0,92,0.00,,---,0.01,VWS V14.01,2013-07-02 20:50:00,
2013-07-02 16:55:00,63.1,60.7,30.14,SE,139,0.0,0.0,92,0.00,,---,0.01,VWS V14.01,2013-07-02 20:55:00,
2013-07-02 17:00:00,63.2,60.8,30.14,SE,139,0.0,0.0,92,0.00,,---,0.01,VWS V14.01,2013-07-02 21:00:00,
2013-07-02 17:05:00,63.0,60.6,30.14,SE,138,0.0,0.0,92,0.00,,---,0.01,VWS V14.01,2013-07-02 21:05:00,
2013-07-02 17:10:00,62.9,60.5,30.15,SE,137,0.0,0.0,92,0.00,,---,0.01,VWS V14.01,2013-07-02 21:10:00,
2013-07-02 17:20:00,63.0,60.6,30.15,SE,137,0.0,0.0,92,0.00,,---,0.01,VWS V14.01,2013-07-02 21:20:00,
2013-07-02 17:25:00,63.0,60.6,30.14,SE,137,0.0,0.0,92,0.00,,---,0.01,VWS V14.01,2013-07-02 21:25:00,
2013-07-02 17:30:00,63.0,60.6,30.14,SE,137,0.0,1.0,92,0.00,,---,0.01,VWS V14.01,2013-07-02 21:30:00,
2013-07-02 17:35:00,62.9,60.5,30.15,SE,138,1.0,1.0,92,0.00,,---,0.01,VWS V14.01,2013-07-02 21:35:00,
2013-07-02 17:45:00,62.9,60.5,30.15,SE,137,0.0,0.0,92,0.00,,---,0.01,VWS V14.01,2013-07-02 21:45:00,
2013-07-02 17:50:00,62.9,60.5,30.14,SE,136,0.0,1.0,92,0.00,,---,0.01,VWS V14.01,2013-07-02 21:50:00,
2013-07-02 17:55:00,63.0,60.6,30.14,SE,136,0.0,1.0,92,0.00,,---,0.01,VWS V14.01,2013-07-02 21:55:00,
2013-07-02 18:05:00,63.0,60.6,30.14,SE,136,0.0,1.0,92,0.00,,---,0.01,VWS V14.01,2013-07-02 22:05:00,
2013-07-02 18:10:00,63.0,60.6,30.14,SE,136,0.0,0.0,92,0.00,,---,0.01,VWS V14.01,2013-07-02 22:10:00,
2013-07-02 18:20:00,63.1,61.0,30.14,SE,136,0.0,0.0,93,0.00,,---,0.01,VWS V14.01,2013-07-02 22:20:00,
2013-07-02 18:30:00,63.1,61.0,30.14,SE,136,0.0,1.0,93,0.00,,---,0.01,VWS V14.01,2013-07-02 22:30:00,
2013-07-02 18:35:00,63.1,61.0,30.14,SE,136,0.0,0.0,93,0.00,,---,0.01,VWS V14.01,2013-07-02 22:35:00,
2013-07-02 18:45:00,63.1,61.0,30.14,ESE,119,0.0,1.0,93,0.00,,---,0.01,VWS V14.01,2013-07-02 22:45:00,
2013-07-02 18:50:00,63.0,61.0,30.15,ESE,119,0.0,1.0,93,0.00,,---,0.01,VWS V14.01,2013-07-02 22:50:00,
2013-07-02 18:55:00,62.9,60.5,30.15,ESE,119,0.0,0.0,92,0.00,,---,0.01,VWS V14.01,2013-07-02 22:55:00,
2013-07-02 19:00:00,63.0,61.0,30.15,ESE,119,0.0,1.0,93,0.00,,---,0.01,VWS V14.01,2013-07-02 23:00:00,
2013-07-02 19:05:00,62.9,60.8,30.14,ESE,119,0.0,0.0,93,0.00,,---,0.01,VWS V14.01,2013-07-02 23:05:00,
2013-07-02 19:10:00,62.9,60.8,30.15,ESE,119,0.0,0.0,93,0.00,,---,0.01,VWS V14.01,2013-07-02 23:10:00,
2013-07-02 19:15:00,62.8,60.5,30.15,ESE,119,0.0,0.0,92,0.00,,---,0.01,VWS V14.01,2013-07-02 23:15:00,
2013-07-02 19:25:00,62.9,60.8,30.15,ESE,119,0.0,0.0,93,0.00,,---,0.01,VWS V14.01,2013-07-02 23:25:00,
2013-07-02 19:35:00,62.8,60.8,30.16,ESE,119,0.0,0.0,93,0.00,,---,0.01,VWS V14.01,2013-07-02 23:35:00,
2013-07-02 19:40:00,62.7,60.7,30.16,ESE,119,0.0,0.0,93,0.00,,---,0.01,VWS V14.01,2013-07-02 23:40:00,
2013-07-02 19:45:00,62.8,60.8,30.16,ESE,119,0.0,0.0,93,0.00,,---,0.01,VWS V14.01,2013-07-02 23:45:00,
2013-07-02 19:55:00,62.8,60.8,30.16,ESE,119,0.0,0.0,93,0.00,,---,0.01,VWS V14.01,2013-07-02 23:55:00,
2013-07-02 20:00:00,62.7,60.7,30.16,ESE,119,0.0,1.0,93,0.00,,---,0.01,VWS V14.01,2013-07-03 00:00:00,
2013-07-02 20:05:00,62.6,60.5,30.16,ESE,119,0.0,0.0,93,0.00,,---,0.01,VWS V14.01,2013-07-03 00:05:00,
2013-07-02 20:10:00,62.6,60.5,30.17,ESE,119,0.0,0.0,93,0.00,,---,0.01,VWS V14.01,2013-07-03 00:10:00,
2013-07-02 20:15:00,62.5,60.5,30.17,ESE,119,0.0,0.0,93,0.00,,---,0.01,VWS V14.01,2013-07-03 00:15:00,
2013-07-02 20:20:00,62.5,60.5,30.17,ESE,119,0.0,0.0,93,0.00,,---,0.01,VWS V14.01,2013-07-03 00:20:00,
2013-07-02 20:25:00,62.5,60.5,30.17,ESE,119,0.0,0.0,93,0.00,,---,0.01,VWS V14.01,2013-07-03 00:25:00,
2013-07-02 20:30:00,62.5,60.5,30.16,ESE,119,0.0,0.0,93,0.00,,---,0.01,VWS V14.01,2013-07-03 00:30:00,
2013-07-02 20:35:00,62.5,60.5,30.17,ESE,119,0.0,0.0,93,0.00,,---,0.01,VWS V14.01,2013-07-03 00:35:00,
2013-07-02 20:40:00,62.5,60.5,30.16,ESE,119,0.0,0.0,93,0.00,,---,0.01,VWS V14.01,2013-07-03 00:40:00,
2013-07-02 20:45:00,62.4,60.3,30.17,ESE,119,0.0,1.0,93,0.00,,---,0.01,VWS V14.01,2013-07-03 00:45:00,
2013-07-02 20:50:00,62.4,60.3,30.17,ESE,119,0.0,0.0,93,0.00,,---,0.01,VWS V14.01,2013-07-03 00:50:00,
2013-07-02 20:55:00,62.4,60.3,30.18,ESE,119,0.0,0.0,93,0.00,,---,0.01,VWS V14.01,2013-07-03 00:55:00,
2013-07-02 21:00:00,62.4,60.3,30.17,ESE,119,0.0,0.0,93,0.00,,---,0.01,VWS V14.01,2013-07-03 01:00:00,
2013-07-02 21:05:00,62.3,60.2,30.18,ESE,119,0.0,0.0,93,0.00,,---,0.01,VWS V14.01,2013-07-03 01:05:00,
2013-07-02 21:15:00,62.1,60.1,30.17,ESE,119,0.0,0.0,93,0.00,,---,0.01,VWS V14.01,2013-07-03 01:15:00,
2013-07-02 21:20:00,62.1,60.1,30.18,ESE,119,0.0,0.0,93,0.00,,---,0.01,VWS V14.01,2013-07-03 01:20:00,
2013-07-02 21:25:00,62.1,60.1,30.18,ESE,119,0.0,0.0,93,0.00,,---,0.01,VWS V14.01,2013-07-03 01:25:00,
2013-07-02 21:30:00,62.2,60.2,30.18,ESE,119,0.0,0.0,93,0.00,,---,0.01,VWS V14.01,2013-07-03 01:30:00,
2013-07-02 21:35:00,62.1,60.1,30.18,ESE,119,0.0,0.0,93,0.00,,---,0.01,VWS V14.01,2013-07-03 01:35:00,
2013-07-02 21:40:00,62.1,60.1,30.18,ESE,119,0.0,0.0,93,0.00,,---,0.01,VWS V14.01,2013-07-03 01:40:00,
2013-07-02 21:45:00,62.1,60.1,30.18,ESE,119,0.0,0.0,93,0.00,,---,0.01,VWS V14.01,2013-07-03 01:45:00,
2013-07-02 21:55:00,62.0,60.0,30.19,ESE,119,0.0,0.0,93,0.00,,---,0.01,VWS V14.01,2013-07-03 01:55:00,
2013-07-02 22:05:00,61.9,59.9,30.18,ESE,117,0.0,1.0,93,0.00,,---,0.01,VWS V14.01,2013-07-03 02:05:00,
2013-07-02 22:10:00,61.8,59.8,30.19,ESE,117,0.0,0.0,93,0.00,,---,0.01,VWS V14.01,2013-07-03 02:10:00,
2013-07-02 22:15:00,61.8,59.8,30.18,ESE,117,0.0,0.0,93,0.00,,---,0.01,VWS V14.01,2013-07-03 02:15:00,
2013-07-02 22:25:00,61.9,59.9,30.19,ESE,117,0.0,0.0,93,0.00,,---,0.01,VWS V14.01,2013-07-03 02:25:00,
2013-07-02 22:35:00,61.9,59.9,30.18,ESE,117,0.0,0.0,93,0.00,,---,0.01,VWS V14.01,2013-07-03 02:35:00,
2013-07-02 22:40:00,61.9,59.9,30.18,ESE,117,0.0,0.0,93,0.00,,---,0.01,VWS V14.01,2013-07-03 02:40:00,
2013-07-02 22:45:00,61.8,59.8,30.18,ESE,117,0.0,0.0,93,0.00,,---,0.01,VWS V14.01,2013-07-03 02:45:00,
2013-07-02 22:50:00,61.8,59.8,30.18,ESE,117,0.0,0.0,93,0.00,,---,0.01,VWS V14.01,2013-07-03 02:50:00,
2013-07-02 22:55:00,61.7,59.7,30.17,ESE,117,0.0,1.0,93,0.00,,---,0.01,VWS V14.01,2013-07-03 02:55:00,
2013-07-02 23:00:00,61.6,59.6,30.18,ESE,117,0.0,0.0,93,0.00,,---,0.01,VWS V14.01,2013-07-03 03:00:00,
2013-07-02 23:05:00,61.5,59.5,30.17,ESE,117,0.0,1.0,93,0.00,,---,0.01,VWS V14.01,2013-07-03 03:05:00,
2013-07-02 23:10:00,61.4,59.4,30.18,ESE,117,0.0,0.0,93,0.00,,---,0.01,VWS V14.01,2013-07-03 03:10:00,
2013-07-02 23:15:00,61.5,59.5,30.18,ESE,117,0.0,0.0,93,0.00,,---,0.01,VWS V14.01,2013-07-03 03:15:00,
2013-07-02 23:25:00,61.5,59.5,30.18,ESE,117,0.0,0.0,93,0.00,,---,0.01,VWS V14.01,2013-07-03 03:25:00,
2013-07-02 23:30:00,61.6,59.6,30.18,ESE,117,0.0,0.0,93,0.00,,---,0.01,VWS V14.01,2013-07-03 03:30:00,
2013-07-02 23:35:00,61.6,59.6,30.18,ESE,117,0.0,0.0,93,0.00,,---,0.01,VWS V14.01,2013-07-03 03:35:00,
2013-07-02 23:40:00,61.6,59.6,30.18,ESE,117,0.0,0.0,93,0.00,,---,0.01,VWS V14.01,2013-07-03 03:40:00,
2013-07-02 23:45:00,61.6,59.6,30.18,ESE,117,0.0,0.0,93,0.00,,---,0.01,VWS V14.01,2013-07-03 03:45:00,
2013-07-02 23:50:00,61.6,59.6,30.19,ESE,117,0.0,0.0,93,0.00,,---,0.01,VWS V14.01,2013-07-03 03:50:00,
2013-07-02 23:55:00,61.6,59.6,30.19,ESE,117,0.0,1.0,93,0.00,,---,0.01,VWS V14.01,2013-07-03 03:55:00,